Time,TemperatureF,DewpointF,PressureIn,WindDirection,WindDirectionDegrees,WindSpeedMPH,WindSpeedGustMPH,Humidity,HourlyPrecipIn,Conditions,Clouds,dailyrainin,SoftwareType,DateUTC
2013-02-05 00:03:00,20.0,13.0,29.93,WSW,242,0.0,-999.0,75,-99.99,,,-99.99,,2013-02-05 05:03:00,
2013-02-05 00:12:00,20.0,13.0,29.93,WSW,242,0.0,-999.0,75,-99.99,,,-99.99,,2013-02-05 05:12:00,
2013-02-05 00:22:00,20.0,13.0,29.93,WSW,242,0.0,-999.0,75,-99.99,,,-99.99,,2013-02-05 05:22:00,
2013-02-05 00:32:00,19.0,13.0,29.93,WSW,242,0.0,-999.0,76,-99.99,,,-99.99,,2013-02-05 05:32:00,
2013-02-05 00:42:00,19.0,13.0,29.93,WSW,242,0.0,-999.0,76,-99.99,,,-99.99,,2013-02-05 05:42:00,
2013-02-05 00:52:00,20.0,14.0,29.93,WSW,242,0.0,-999.0,76,-99.99,,,-99.99,,2013-02-05 05:52:00,
2013-02-05 01:02:00,19.0,13.0,29.93,WNW,294,1.0,-999.0,76,-99.99,,,-99.99,,2013-02-05 06:02:00,
2013-02-05 01:11:00,19.0,13.0,29.93,WNW,294,1.0,-999.0,76,-99.99,,,-99.99,,2013-02-05 06:11:00,
2013-02-05 01:22:00,19.0,13.0,29.92,WNW,294,1.0,-999.0,76,-99.99,,,-99.99,,2013-02-05 06:22:00,
2013-02-05 01:32:00,19.0,13.0,29.92,WNW,294,1.0,-999.0,76,-99.99,,,-99.99,,2013-02-05 06:32:00,
2013-02-05 01:42:00,19.0,13.0,29.92,WNW,294,1.0,-999.0,76,-99.99,,,-99.99,,2013-02-05 06:42:00,
2013-02-05 01:52:00,19.0,13.0,29.92,WNW,294,1.0,-999.0,77,-99.99,,,-99.99,,2013-02-05 06:52:00,
2013-02-05 02:01:00,19.0,13.0,29.92,WNW,294,2.0,-999.0,78,-99.99,,,-99.99,,2013-02-05 07:01:00,
2013-02-05 02:11:00,19.0,13.0,29.92,WNW,294,2.0,-999.0,78,-99.99,,,-99.99,,2013-02-05 07:11:00,
2013-02-05 02:22:00,19.0,14.0,29.92,NW,324,1.0,-999.0,79,-99.99,,,-99.99,,2013-02-05 07:22:00,
2013-02-05 02:32:00,18.0,13.0,29.92,NNE,29,2.0,-999.0,82,-99.99,,,-99.99,,2013-02-05 07:32:00,
2013-02-05 02:42:00,18.0,13.0,29.92,NNE,29,2.0,-999.0,82,-99.99,,,-99.99,,2013-02-05 07:42:00,
2013-02-05 02:52:00,18.0,14.0,29.93,NNE,26,2.0,-999.0,85,-99.99,,,-99.99,,2013-02-05 07:52:00,
2013-02-05 03:01:00,18.0,15.0,29.93,NE,38,3.0,-999.0,86,-99.99,,,-99.99,,2013-02-05 08:01:00,
2013-02-05 03:11:00,18.0,15.0,29.93,NE,38,3.0,-999.0,86,-99.99,,,-99.99,,2013-02-05 08:11:00,
2013-02-05 03:22:00,17.0,14.0,29.93,NE,35,4.0,-999.0,87,-99.99,,,-99.99,,2013-02-05 08:22:00,
2013-02-05 03:32:00,17.0,14.0,29.93,NE,49,3.0,-999.0,87,-99.99,,,-99.99,,2013-02-05 08:32:00,
2013-02-05 03:42:00,17.0,14.0,29.93,NE,49,3.0,-999.0,87,-99.99,,,-99.99,,2013-02-05 08:42:00,
2013-02-05 03:52:00,17.0,14.0,29.93,NNE,32,3.0,-999.0,87,-99.99,,,-99.99,,2013-02-05 08:52:00,
2013-02-05 04:02:00,17.0,14.0,29.93,NE,55,2.0,-999.0,87,-99.99,,,-99.99,,2013-02-05 09:02:00,
2013-02-05 04:11:00,17.0,14.0,29.93,NE,55,2.0,-999.0,87,-99.99,,,-99.99,,2013-02-05 09:11:00,
2013-02-05 04:22:00,17.0,14.0,29.94,NE,44,3.0,-999.0,87,-99.99,,,-99.99,,2013-02-05 09:22:00,
2013-02-05 04:32:00,17.0,14.0,29.93,NE,49,2.0,-999.0,87,-99.99,,,-99.99,,2013-02-05 09:32:00,
2013-02-05 04:42:00,17.0,14.0,29.93,NE,49,2.0,-999.0,87,-99.99,,,-99.99,,2013-02-05 09:42:00,
2013-02-05 04:52:00,16.0,13.0,29.93,NE,49,1.0,-999.0,87,-99.99,,,-99.99,,2013-02-05 09:52:00,
2013-02-05 05:02:00,16.0,13.0,29.93,NE,49,1.0,-999.0,86,-99.99,,,-99.99,,2013-02-05 10:02:00,
2013-02-05 05:11:00,16.0,13.0,29.93,NE,49,1.0,-999.0,86,-99.99,,,-99.99,,2013-02-05 10:11:00,
2013-02-05 05:21:00,16.0,13.0,29.93,NE,49,1.0,-999.0,86,-99.99,,,-99.99,,2013-02-05 10:21:00,
2013-02-05 05:32:00,16.0,13.0,29.93,NE,49,1.0,-999.0,86,-99.99,,,-99.99,,2013-02-05 10:32:00,
2013-02-05 05:42:00,16.0,13.0,29.93,NE,49,1.0,-999.0,86,-99.99,,,-99.99,,2013-02-05 10:42:00,
2013-02-05 05:52:00,16.0,12.0,29.94,NE,49,0.0,-999.0,85,-99.99,,,-99.99,,2013-02-05 10:52:00,
2013-02-05 06:01:00,16.0,12.0,29.95,NE,49,0.0,-999.0,85,-99.99,,,-99.99,,2013-02-05 11:01:00,
2013-02-05 06:11:00,16.0,12.0,29.95,NE,49,0.0,-999.0,85,-99.99,,,-99.99,,2013-02-05 11:11:00,
2013-02-05 06:22:00,16.0,12.0,29.95,NE,49,0.0,-999.0,85,-99.99,,,-99.99,,2013-02-05 11:22:00,
2013-02-05 06:32:00,16.0,12.0,29.95,NE,49,0.0,-999.0,85,-99.99,,,-99.99,,2013-02-05 11:32:00,
2013-02-05 06:42:00,16.0,12.0,29.95,NE,49,0.0,-999.0,85,-99.99,,,-99.99,,2013-02-05 11:42:00,
2013-02-05 06:52:00,16.0,13.0,29.95,NE,49,0.0,-999.0,86,-99.99,,,-99.99,,2013-02-05 11:52:00,
2013-02-05 07:02:00,16.0,12.0,29.96,NE,49,0.0,-999.0,85,-99.99,,,-99.99,,2013-02-05 12:02:00,
2013-02-05 07:12:00,16.0,12.0,29.96,NE,49,0.0,-999.0,85,-99.99,,,-99.99,,2013-02-05 12:12:00,
2013-02-05 07:22:00,16.0,12.0,29.96,NE,49,0.0,-999.0,85,-99.99,,,-99.99,,2013-02-05 12:22:00,
2013-02-05 07:32:00,16.0,12.0,29.96,NE,49,0.0,-999.0,85,-99.99,,,-99.99,,2013-02-05 12:32:00,
2013-02-05 07:42:00,16.0,12.0,29.96,NE,49,0.0,-999.0,85,-99.99,,,-99.99,,2013-02-05 12:42:00,
2013-02-05 07:52:00,16.0,12.0,29.96,NE,49,0.0,-999.0,85,-99.99,,,-99.99,,2013-02-05 12:52:00,
2013-02-05 08:02:00,16.0,13.0,29.97,NE,49,0.0,-999.0,86,-99.99,,,-99.99,,2013-02-05 13:02:00,
2013-02-05 08:12:00,16.0,13.0,29.97,NE,49,0.0,-999.0,86,-99.99,,,-99.99,,2013-02-05 13:12:00,
2013-02-05 08:22:00,16.0,13.0,29.97,NE,50,1.0,-999.0,86,-99.99,,,-99.99,,2013-02-05 13:22:00,
2013-02-05 08:32:00,16.0,13.0,29.97,ESE,109,2.0,-999.0,86,-99.99,,,-99.99,,2013-02-05 13:32:00,
2013-02-05 08:42:00,16.0,13.0,29.97,ESE,109,2.0,-999.0,86,-99.99,,,-99.99,,2013-02-05 13:42:00,
2013-02-05 08:52:00,16.0,13.0,29.97,SE,141,4.0,-999.0,86,-99.99,,,-99.99,,2013-02-05 13:52:00,
2013-02-05 09:01:00,17.0,13.0,29.97,SE,139,4.0,-999.0,84,-99.99,,,-99.99,,2013-02-05 14:01:00,
2013-02-05 09:12:00,17.0,13.0,29.97,SE,139,4.0,-999.0,84,-99.99,,,-99.99,,2013-02-05 14:12:00,
2013-02-05 09:22:00,17.0,12.0,29.97,ESE,114,6.0,-999.0,82,-99.99,,,-99.99,,2013-02-05 14:22:00,
2013-02-05 09:32:00,17.0,12.0,29.97,SE,128,5.0,-999.0,80,-99.99,,,-99.99,,2013-02-05 14:32:00,
2013-02-05 09:42:00,17.0,12.0,29.97,SE,128,5.0,-999.0,80,-99.99,,,-99.99,,2013-02-05 14:42:00,
2013-02-05 09:52:00,17.0,12.0,29.97,SE,128,5.0,-999.0,79,-99.99,,,-99.99,,2013-02-05 14:52:00,
2013-02-05 10:02:00,18.0,12.0,29.97,SE,129,4.0,-999.0,78,-99.99,,,-99.99,,2013-02-05 15:02:00,
2013-02-05 10:11:00,18.0,12.0,29.97,SE,129,4.0,-999.0,78,-99.99,,,-99.99,,2013-02-05 15:11:00,
2013-02-05 10:22:00,18.0,12.0,29.97,SE,129,4.0,-999.0,78,-99.99,,,-99.99,,2013-02-05 15:22:00,
2013-02-05 10:32:00,18.0,11.0,29.97,SSE,154,4.0,-999.0,74,-99.99,,,-99.99,,2013-02-05 15:32:00,
2013-02-05 10:42:00,18.0,11.0,29.97,SSE,154,4.0,-999.0,74,-99.99,,,-99.99,,2013-02-05 15:42:00,
2013-02-05 10:52:00,18.0,11.0,29.96,SE,142,5.0,-999.0,73,-99.99,,,-99.99,,2013-02-05 15:52:00,
2013-02-05 11:01:00,19.0,11.0,29.96,SSE,154,4.0,-999.0,71,-99.99,,,-99.99,,2013-02-05 16:01:00,
2013-02-05 11:12:00,19.0,11.0,29.96,SSE,154,4.0,-999.0,71,-99.99,,,-99.99,,2013-02-05 16:12:00,
2013-02-05 11:22:00,20.0,12.0,29.96,SE,132,4.0,-999.0,70,-99.99,,,-99.99,,2013-02-05 16:22:00,
2013-02-05 11:32:00,21.0,12.0,29.96,SSE,162,5.0,-999.0,69,-99.99,,,-99.99,,2013-02-05 16:32:00,
2013-02-05 11:42:00,21.0,12.0,29.96,SSE,162,5.0,-999.0,69,-99.99,,,-99.99,,2013-02-05 16:42:00,
2013-02-05 11:52:00,21.0,12.0,29.95,SSE,151,4.0,-999.0,68,-99.99,,,-99.99,,2013-02-05 16:52:00,
2013-02-05 12:01:00,22.0,13.0,29.93,SE,136,3.0,-999.0,67,-99.99,,,-99.99,,2013-02-05 17:01:00,
2013-02-05 12:12:00,22.0,13.0,29.93,SE,136,3.0,-999.0,67,-99.99,,,-99.99,,2013-02-05 17:12:00,
2013-02-05 12:22:00,22.0,13.0,29.93,SSE,150,2.0,-999.0,67,-99.99,,,-99.99,,2013-02-05 17:22:00,
2013-02-05 12:32:00,23.0,14.0,29.92,SE,132,3.0,-999.0,67,-99.99,,,-99.99,,2013-02-05 17:32:00,
2013-02-05 12:42:00,23.0,14.0,29.92,SE,132,3.0,-999.0,67,-99.99,,,-99.99,,2013-02-05 17:42:00,
2013-02-05 12:52:00,23.0,13.0,29.92,ESE,116,3.0,-999.0,66,-99.99,,,-99.99,,2013-02-05 17:52:00,
2013-02-05 13:02:00,24.0,15.0,29.90,South,169,1.0,-999.0,67,-99.99,,,-99.99,,2013-02-05 18:02:00,
2013-02-05 13:11:00,24.0,15.0,29.90,South,169,1.0,-999.0,67,-99.99,,,-99.99,,2013-02-05 18:11:00,
2013-02-05 13:22:00,24.0,14.0,29.90,ESE,110,3.0,-999.0,66,-99.99,,,-99.99,,2013-02-05 18:22:00,
2013-02-05 13:32:00,24.0,14.0,29.89,SSE,158,2.0,-999.0,66,-99.99,,,-99.99,,2013-02-05 18:32:00,
2013-02-05 13:42:00,24.0,14.0,29.89,SSE,158,2.0,-999.0,66,-99.99,,,-99.99,,2013-02-05 18:42:00,
2013-02-05 13:52:00,24.0,14.0,29.88,SSE,159,2.0,-999.0,65,-99.99,,,-99.99,,2013-02-05 18:52:00,
2013-02-05 14:02:00,24.0,15.0,29.89,SE,124,1.0,-999.0,68,-99.99,,,-99.99,,2013-02-05 19:02:00,
2013-02-05 14:11:00,24.0,15.0,29.89,SE,124,1.0,-999.0,68,-99.99,,,-99.99,,2013-02-05 19:11:00,
2013-02-05 14:22:00,24.0,15.0,29.88,ESE,116,1.0,-999.0,67,-99.99,,,-99.99,,2013-02-05 19:22:00,
2013-02-05 14:32:00,24.0,15.0,29.88,South,173,3.0,-999.0,67,-99.99,,,-99.99,,2013-02-05 19:32:00,
2013-02-05 14:42:00,24.0,15.0,29.88,South,173,3.0,-999.0,67,-99.99,,,-99.99,,2013-02-05 19:42:00,
2013-02-05 14:52:00,25.0,16.0,29.87,SE,141,1.0,-999.0,68,-99.99,,,-99.99,,2013-02-05 19:52:00,
2013-02-05 15:02:00,25.0,16.0,29.86,SE,136,2.0,-999.0,68,-99.99,,,-99.99,,2013-02-05 20:02:00,
2013-02-05 15:11:00,25.0,16.0,29.86,SE,136,2.0,-999.0,68,-99.99,,,-99.99,,2013-02-05 20:11:00,
2013-02-05 15:21:00,25.0,16.0,29.85,SE,126,3.0,-999.0,67,-99.99,,,-99.99,,2013-02-05 20:21:00,
2013-02-05 15:32:00,25.0,16.0,29.85,SSE,151,2.0,-999.0,67,-99.99,,,-99.99,,2013-02-05 20:32:00,
2013-02-05 15:42:00,25.0,16.0,29.85,SSE,151,2.0,-999.0,67,-99.99,,,-99.99,,2013-02-05 20:42:00,
2013-02-05 15:52:00,25.0,16.0,29.84,SSE,168,5.0,-999.0,67,-99.99,,,-99.99,,2013-02-05 20:52:00,
2013-02-05 16:02:00,25.0,16.0,29.84,SE,134,3.0,-999.0,68,-99.99,,,-99.99,,2013-02-05 21:02:00,
2013-02-05 16:11:00,25.0,16.0,29.84,SE,134,3.0,-999.0,68,-99.99,,,-99.99,,2013-02-05 21:11:00,
2013-02-05 16:22:00,26.0,17.0,29.84,SE,139,3.0,-999.0,68,-99.99,,,-99.99,,2013-02-05 21:22:00,
2013-02-05 16:32:00,26.0,17.0,29.84,SE,130,4.0,-999.0,67,-99.99,,,-99.99,,2013-02-05 21:32:00,
2013-02-05 16:42:00,26.0,17.0,29.84,SE,130,4.0,-999.0,67,-99.99,,,-99.99,,2013-02-05 21:42:00,
2013-02-05 16:52:00,26.0,17.0,29.84,SE,130,1.0,-999.0,68,-99.99,,,-99.99,,2013-02-05 21:52:00,
2013-02-05 17:01:00,26.0,17.0,29.84,SE,132,1.0,-999.0,67,-99.99,,,-99.99,,2013-02-05 22:01:00,
2013-02-05 17:11:00,26.0,17.0,29.84,SE,132,1.0,-999.0,67,-99.99,,,-99.99,,2013-02-05 22:11:00,
2013-02-05 17:22:00,26.0,17.0,29.84,SE,132,0.0,-999.0,68,-99.99,,,-99.99,,2013-02-05 22:22:00,
2013-02-05 17:32:00,26.0,17.0,29.84,SE,132,1.0,-999.0,68,-99.99,,,-99.99,,2013-02-05 22:32:00,
2013-02-05 17:42:00,26.0,17.0,29.84,SE,132,1.0,-999.0,68,-99.99,,,-99.99,,2013-02-05 22:42:00,
2013-02-05 17:52:00,26.0,17.0,29.84,SE,132,1.0,-999.0,69,-99.99,,,-99.99,,2013-02-05 22:52:00,
2013-02-05 18:02:00,26.0,18.0,29.85,SE,132,0.0,-999.0,70,-99.99,,,-99.99,,2013-02-05 23:02:00,
2013-02-05 18:11:00,26.0,18.0,29.85,SE,132,0.0,-999.0,70,-99.99,,,-99.99,,2013-02-05 23:11:00,
2013-02-05 18:22:00,25.0,17.0,29.84,SE,132,0.0,-999.0,71,-99.99,,,-99.99,,2013-02-05 23:22:00,
2013-02-05 18:32:00,25.0,17.0,29.84,SE,132,0.0,-999.0,71,-99.99,,,-99.99,,2013-02-05 23:32:00,
2013-02-05 18:42:00,25.0,17.0,29.84,SE,132,0.0,-999.0,71,-99.99,,,-99.99,,2013-02-05 23:42:00,
2013-02-05 18:53:00,25.0,17.0,29.84,SE,132,0.0,-999.0,71,-99.99,,,-99.99,,2013-02-05 23:53:00,
2013-02-05 19:02:00,25.0,17.0,29.85,SE,132,0.0,-999.0,72,-99.99,,,-99.99,,2013-02-06 00:02:00,
2013-02-05 19:12:00,25.0,17.0,29.85,SE,132,0.0,-999.0,72,-99.99,,,-99.99,,2013-02-06 00:12:00,
2013-02-05 19:22:00,25.0,17.0,29.86,SE,131,0.0,-999.0,72,-99.99,,,-99.99,,2013-02-06 00:22:00,
2013-02-05 19:32:00,25.0,18.0,29.86,SE,132,0.0,-999.0,73,-99.99,,,-99.99,,2013-02-06 00:32:00,
2013-02-05 19:42:00,25.0,18.0,29.86,SE,132,0.0,-999.0,73,-99.99,,,-99.99,,2013-02-06 00:42:00,
2013-02-05 19:52:00,25.0,18.0,29.86,SE,132,0.0,-999.0,73,-99.99,,,-99.99,,2013-02-06 00:52:00,
2013-02-05 20:02:00,25.0,18.0,29.87,SE,132,0.0,-999.0,75,-99.99,,,-99.99,,2013-02-06 01:02:00,
2013-02-05 20:12:00,25.0,18.0,29.87,SE,132,0.0,-999.0,75,-99.99,,,-99.99,,2013-02-06 01:12:00,
2013-02-05 20:22:00,25.0,18.0,29.87,SE,132,1.0,-999.0,75,-99.99,,,-99.99,,2013-02-06 01:22:00,
2013-02-05 20:32:00,25.0,18.0,29.87,SE,132,0.0,-999.0,75,-99.99,,,-99.99,,2013-02-06 01:32:00,
2013-02-05 20:42:00,25.0,18.0,29.87,SE,132,0.0,-999.0,75,-99.99,,,-99.99,,2013-02-06 01:42:00,
2013-02-05 20:52:00,25.0,18.0,29.87,SE,132,0.0,-999.0,75,-99.99,,,-99.99,,2013-02-06 01:52:00,
2013-02-05 21:02:00,25.0,19.0,29.87,SE,132,0.0,-999.0,76,-99.99,,,-99.99,,2013-02-06 02:02:00,
2013-02-05 21:12:00,25.0,19.0,29.87,SE,132,0.0,-999.0,76,-99.99,,,-99.99,,2013-02-06 02:12:00,
2013-02-05 21:22:00,25.0,19.0,29.87,SE,132,0.0,-999.0,76,-99.99,,,-99.99,,2013-02-06 02:22:00,
2013-02-05 21:32:00,25.0,19.0,29.87,SE,132,0.0,-999.0,78,-99.99,,,-99.99,,2013-02-06 02:32:00,
2013-02-05 21:42:00,25.0,19.0,29.87,SE,132,0.0,-999.0,78,-99.99,,,-99.99,,2013-02-06 02:42:00,
2013-02-05 21:52:00,25.0,19.0,29.87,SE,132,0.0,-999.0,77,-99.99,,,-99.99,,2013-02-06 02:52:00,
2013-02-05 22:03:00,25.0,19.0,29.87,SE,132,0.0,-999.0,78,-99.99,,,-99.99,,2013-02-06 03:03:00,
2013-02-05 22:12:00,25.0,19.0,29.87,SE,132,0.0,-999.0,78,-99.99,,,-99.99,,2013-02-06 03:12:00,
2013-02-05 22:22:00,25.0,19.0,29.87,SE,141,0.0,-999.0,77,-99.99,,,-99.99,,2013-02-06 03:22:00,
2013-02-05 22:32:00,25.0,18.0,29.86,SE,141,1.0,-999.0,74,-99.99,,,-99.99,,2013-02-06 03:32:00,
2013-02-05 22:42:00,25.0,18.0,29.86,SE,141,1.0,-999.0,74,-99.99,,,-99.99,,2013-02-06 03:42:00,
2013-02-05 22:52:00,26.0,18.0,29.86,SE,141,0.0,-999.0,72,-99.99,,,-99.99,,2013-02-06 03:52:00,
2013-02-05 23:02:00,26.0,18.0,29.86,SE,141,0.0,-999.0,71,-99.99,,,-99.99,,2013-02-06 04:02:00,
2013-02-05 23:11:00,26.0,18.0,29.86,SE,141,0.0,-999.0,71,-99.99,,,-99.99,,2013-02-06 04:11:00,
2013-02-05 23:22:00,25.0,17.0,29.86,SE,141,0.0,-999.0,72,-99.99,,,-99.99,,2013-02-06 04:22:00,
2013-02-05 23:32:00,25.0,17.0,29.86,SE,141,0.0,-999.0,72,-99.99,,,-99.99,,2013-02-06 04:32:00,
2013-02-05 23:42:00,25.0,17.0,29.86,SE,141,0.0,-999.0,72,-99.99,,,-99.99,,2013-02-06 04:42:00,
2013-02-05 23:52:00,25.0,18.0,29.85,SSE,161,2.0,-999.0,75,-99.99,,,-99.99,,2013-02-06 04:52:00,